RH
50 52 51 50 46 40 38 36 36 33 27 26 26 30 32 49 68 86 86 87 86 85 93 88 82 82 84 81 89 88 86 82
66 63 60 56 53 48 41 32 24 28 31 30 29 27 29 29 32 43 65 79 87 88 87 89 95 89 85 81 76 86 88 87
63 60 56 51 46 43 36 33 33 34 36 41 43 40 35 37 37 33 32 43 61 74 80 87 88 93 89 85 80 78 74 75
66 62 58 53 44 44 39 39 38 36 36 43 51 53 53 50 50 48 47 46 38 48 62 76 82 94 92 90 82 77 75 76
65 63 62 60 56 48 45 40 36 38 41 45 58 62 58 58 62 60 56 57 56 53 47 57 72 76 86 90 89 74 73 85
74 67 63 63 56 41 47 42 26 34 45 47 54 65 68 65 68 78 76 75 75 70 65 56 55 67 74 94 91 90 80 84
75 74 67 60 52 42 54 48 33 45 52 60 63 70 75 74 73 80 80 82 86 89 82 76 67 60 65 76 96 94 89 78
80 75 71 66 61 51 53 44 47 54 57 62 71 76 79 81 79 81 87 87 89 85 94 95 83 68 58 77 94 90 91 89
83 80 80 76 61 57 64 62 58 59 62 68 76 80 82 82 84 84 85 96 97 90 86 100 99 92 70 69 92 90 90 93
94 88 83 78 70 76 79 69 65 66 71 76 79 82 84 88 88 88 88 86 88 87 84 89 100 99 93 71 83 79 86 79
97 92 85 80 85 79 82 89 88 88 85 84 86 86 87 91 92 92 89 83 85 90 95 99 98 99 97 75 77 68 69 70
94 92 94 94 95 96 93 86 86 84 84 85 87 91 93 94 89 90 89 82 87 89 97 99 99 99 99 82 81 68 67 73
83 83 85 93 100 99 97 88 87 86 84 89 91 92 92 93 90 88 88 91 97 98 98 99 100 100 98 99 73 72 80 77
94 98 96 98 99 98 97 89 88 87 87 89 91 93 94 95 95 94 92 95 99 99 99 99 100 100 84 81 89 82 70 74
99 99 100 100 100 97 92 91 91 91 91 91 92 96 95 96 97 96 98 99 99 100 99 99 100 100 97 84 82 80 83 97
99 100 100 100 100 95 95 94 95 94 92 92 93 94 94 93 95 97 99 99 100 99 99 100 100 100 99 94 93 78 67 77
100 100 100 100 100 99 96 97 97 95 93 93 96 96 94 93 94 97 98 96 97 99 100 100 100 98 100 100 100 94 95 100
99 100 100 99 100 98 96 96 96 93 93 92 96 96 97 97 96 93 96 96 97 97 98 100 100 100 100 98 100 100 99 100
99 99 96 95 96 97 98 98 96 93 91 92 91 93 96 97 97 96 95 96 96 97 97 98 98 99 100 100 100 100 100 98
Wind_Speed
36 33 29 24 20 16 12 9 12 14 15 17 20 20 20 23 24 26 27 26 27 30 31 34 37 39 39 42 42 40 39 36
32 31 26 21 15 10 5 5 8 11 13 14 17 21 21 22 25 28 29 30 29 27 32 34 35 38 41 44 40 42 45 43
27 24 20 16 14 10 6 2 4 9 13 15 16 18 21 22 23 25 29 33 34 34 34 34 36 37 41 44 43 45 42 42
21 21 20 14 12 10 8 7 7 8 11 16 17 18 19 21 22 24 25 29 35 38 40 38 36 34 38 42 45 42 46 43
28 23 20 17 15 12 10 7 8 10 12 15 18 20 23 24 25 26 26 25 29 35 42 44 41 36 37 40 43 42 41 45
24 25 20 17 15 15 13 11 11 13 13 15 19 20 22 24 26 28 27 27 26 27 33 41 46 43 37 38 44 45 42 44
25 23 18 17 15 14 16 16 17 16 17 17 18 21 22 23 25 27 28 28 27 25 24 29 36 42 39 40 44 46 46 45
28 24 22 20 20 20 20 19 16 19 20 20 19 20 22 24 25 28 30 30 29 25 24 24 28 34 39 37 40 46 47 46
27 25 22 22 23 21 20 19 19 20 20 21 21 21 22 23 23 25 27 30 30 28 29 30 30 28 36 40 32 41 47 42
25 23 22 23 22 20 20 20 20 21 22 22 23 23 24 24 23 23 24 27 31 32 31 33 32 29 29 38 34 36 40 41
20 20 22 21 17 17 20 22 23 22 23 23 24 23 23 24 25 24 24 24 27 29 30 32 32 29 28 32 36 35 42 45
18 17 16 17 18 20 22 21 22 23 24 23 23 24 23 22 23 25 25 24 26 26 27 29 28 28 28 30 34 35 33 36
18 19 20 20 20 20 21 20 21 22 23 22 22 22 23 24 23 24 25 24 24 24 25 26 26 23 26 30 29 29 35 35
16 18 20 19 18 18 18 19 20 20 19 22 22 23 24 24 24 23 23 24 23 21 22 22 23 22 18 22 24 30 32 38
11 13 13 13 15 16 17 18 20 19 20 23 25 26 26 26 26 25 24 23 21 19 18 18 17 19 19 19 23 25 33 37
12 14 14 14 17 17 19 20 19 20 22 25 27 27 27 27 27 28 26 24 24 22 18 16 16 17 16 17 20 26 32 46
13 15 15 17 19 20 20 20 21 22 25 27 27 27 28 29 31 31 29 28 29 28 26 25 22 19 20 15 14 20 20 23
11 16 19 19 21 22 22 21 21 23 25 27 28 28 29 31 32 33 36 36 32 32 33 34 33 27 25 14 8 10 15 15
9 12 13 17 17 19 21 23 26 27 28 27 27 27 28 29 31 33 34 37 38 39 39 39 41 37 27 21 16 8 2 12
Wind_Direction
155 152 149 149 156 173 198 237 273 280 276 270 270 268 255 252 249 248 250 248 246 246 253 263 255 250 248 246 243 246 245 244
133 130 133 137 135 147 168 234 279 292 296 288 276 277 276 264 258 257 251 249 250 251 251 252 258 258 253 249 248 247 243 241
122 122 128 126 109 94 86 50 313 309 311 315 309 301 290 286 279 267 261 257 253 249 253 255 253 257 257 255 252 247 250 247
116 109 102 99 89 65 46 24 356 333 316 312 309 303 297 294 287 282 272 266 259 254 250 255 258 255 260 259 255 252 248 244
124 112 100 86 74 66 58 52 25 358 335 323 321 320 315 315 311 302 291 280 269 262 256 251 253 255 257 259 260 253 249 242
104 105 91 78 72 63 36 33 29 2 347 332 322 317 313 312 313 309 306 303 294 279 266 259 254 252 257 259 258 255 251 246
97 84 86 73 56 44 27 23 17 2 353 343 333 322 316 315 317 316 312 313 312 306 287 269 261 257 252 256 258 257 254 251
84 74 59 45 36 32 14 13 6 2 356 349 342 331 324 320 322 323 319 315 315 312 305 297 278 261 249 249 255 252 254 254
71 62 48 36 28 20 7 6 5 3 357 352 346 340 332 328 322 322 321 314 312 313 305 303 297 277 256 241 254 252 250 252
66 50 35 24 19 10 6 9 7 1 357 354 350 346 342 336 328 320 318 319 313 309 304 300 296 293 269 240 248 251 247 247
51 41 27 17 14 11 10 16 13 8 4 358 354 351 348 344 339 329 319 320 314 312 304 301 295 288 281 250 243 252 250 245
56 39 27 21 18 19 15 15 11 8 4 359 354 354 352 348 348 343 334 322 315 315 313 312 294 287 283 259 244 248 245 244
23 17 16 17 19 16 18 17 17 15 9 2 1 359 359 358 353 344 340 335 325 322 314 309 299 295 269 258 257 243 245 248
30 20 18 16 17 14 17 20 23 17 13 13 13 12 11 8 4 358 349 344 338 332 325 310 302 292 284 248 249 250 246 259
44 27 29 22 22 19 26 29 29 25 26 28 25 25 24 22 19 15 10 4 353 346 339 338 325 311 275 255 247 248 246 258
44 30 31 27 29 32 38 39 37 34 36 37 32 30 30 29 30 31 28 26 22 14 1 357 355 346 313 268 251 259 251 270
39 33 37 39 37 42 44 43 41 41 41 42 37 35 33 36 37 36 35 37 39 36 32 27 21 5 347 293 258 253 253 233
53 52 52 50 51 49 48 47 47 46 45 42 42 40 39 38 39 41 42 42 41 43 46 42 37 33 25 15 4 262 251 228
74 63 57 58 57 57 55 53 51 50 48 44 44 42 42 42 43 42 42 46 45 44 46 49 48 43 42 45 49 39 248 217